Weather History for Lone Rock, WI

Change the Weather History Date:

Thursday, November 8, 2012

  Actual Average Record
Temperature  
Mean Temperature 42 °F -  
Max Temperature 51 °F 46 °F 73 °F (1999)
Min Temperature 33 °F 29 °F 10 °F (2003)
Degree Days  
Heating Degree Days 23    
Moisture  
Dew Point 34 °F    
Average Humidity 77    
Maximum Humidity 93    
Minimum Humidity 56    
Precipitation  
Precipitation 0.00 in - - ()
Sea Level Pressure  
Sea Level Pressure 30.09 in    
Wind  
Wind Speed 4 mph (SSE)    
Max Wind Speed 13 mph    
Max Gust Speed 18 mph    
Visibility 8 miles    
Events      
Averages and records for this station are not official NWS values.
T = Trace of Precipitation, MM = Missing Value Source: NWS Daily Summary

Daily Weather History Graph

Daily Weather History Graph

Search for Another Location

Airport:

Trip Planner

Search our weather history database for the weather conditions in past years. The results will help you decide how hot, cold, wet, or windy it might be!

Date:

Astronomy

Nov. 08, 2012 Rise Set
Actual Time 6:45 AM CST 4:43 PM CST
Civil Twilight 6:15 AM CST 5:13 PM CST
Nautical Twilight 5:41 AM CST 5:47 PM CST
Astronomical Twilight 5:07 AM CST 6:20 PM CST
Moon 12:31 AM CST (11/8) 1:32 PM CST (11/8)
Length of Visible Light 10h 58m
Length of Day
9h 57m
Waning Crescent, 32% of the Moon is Illuminated
Nov 8
Waning Crescent
Nov 13
New
Nov 20
First Quarter
Nov 28
Full
Dec 6
Last Quarter

Hourly Weather History & Observations

Time (CST) Temp. Windchill Dew Point Humidity Pressure Visibility Wind Dir Wind Speed Gust Speed Precip Events Conditions
1:56 AM 37.0 °F - 35.1 °F 93% 30.15 in 5.0 mi Calm Calm - N/A   Overcast
2:56 AM 37.0 °F - 35.1 °F 93% 30.16 in 5.0 mi Calm Calm - N/A   Overcast
3:56 AM 37.9 °F - 35.1 °F 89% 30.14 in 7.0 mi Calm Calm - N/A   Overcast
4:56 AM 37.9 °F 35.5 °F 35.1 °F 89% 30.14 in 8.0 mi ENE 3.5 mph - N/A   Overcast
5:56 AM 37.0 °F 34.5 °F 34.0 °F 89% 30.14 in 8.0 mi East 3.5 mph - N/A   Overcast
6:56 AM 36.0 °F - 33.1 °F 89% 30.14 in 8.0 mi Calm Calm - N/A   Overcast
7:56 AM 39.0 °F - 33.1 °F 79% 30.15 in 8.0 mi Calm Calm - N/A   Clear
8:56 AM 42.1 °F 37.7 °F 34.0 °F 73% 30.16 in 8.0 mi South 6.9 mph - N/A   Clear
9:56 AM 45.0 °F 40.1 °F 34.0 °F 65% 30.14 in 9.0 mi South 9.2 mph - N/A   Clear
10:56 AM 46.9 °F - 35.1 °F 63% 30.13 in 10.0 mi South 12.7 mph - N/A   Clear
11:56 AM 48.9 °F - 36.0 °F 61% 30.09 in 10.0 mi South 12.7 mph - N/A   Clear
12:56 PM 50.0 °F - 36.0 °F 59% 30.07 in 10.0 mi South 12.7 mph - N/A   Clear
1:56 PM 50.0 °F - 36.0 °F 59% 30.04 in 10.0 mi South 11.5 mph 18.4 mph N/A   Clear
2:56 PM 51.1 °F - 36.0 °F 56% 30.02 in 10.0 mi South 10.4 mph - N/A   Clear
3:56 PM 50.0 °F - 36.0 °F 59% 30.02 in 10.0 mi South 6.9 mph - N/A   Clear
4:56 PM 46.9 °F - 36.0 °F 66% 30.02 in 9.0 mi SSE 3.5 mph - N/A   Clear
5:56 PM 46.0 °F 44.8 °F 36.0 °F 68% 30.03 in 10.0 mi SSE 3.5 mph - N/A   Clear
6:56 PM 41.0 °F 39.0 °F 35.1 °F 79% 30.03 in 9.0 mi East 3.5 mph - N/A   Clear
7:56 PM 39.0 °F 34.8 °F 34.0 °F 82% 30.03 in 8.0 mi East 5.8 mph - N/A   Clear
8:56 PM 37.0 °F - 33.1 °F 86% 30.05 in 8.0 mi Calm Calm - N/A   Clear
9:56 PM 36.0 °F - 33.1 °F 89% 30.06 in 7.0 mi Calm Calm - N/A   Clear
10:56 PM 33.1 °F - 30.0 °F 89% 30.07 in 6.0 mi Calm Calm - N/A   Clear
11:56 PM 34.0 °F 31.0 °F 32.0 °F 92% 30.06 in 5.0 mi East 3.5 mph - N/A   Clear